Location: ??????
(55.7522°N, 37.6156°E)
Time: 18:07:09
(UTC+00:00)

NOSS 3-1 (C) - Pass Details

Date: 14 June 2025
Orbit: 625 x 1577 km, 63.4° (Epoch: 18 June)

Event Time Altitude Azimuth Distance (km) Brightness Sun altitude
Rises 20:39:25 0° 309° (NW) 3,690 7.4 -10.2°
Reaches altitude 10° 20:41:50 10° 305° (NW) 2,865 6.7 -10.3°
Maximum altitude 20:48:29 52° 232° (SW) 1,497 4.3 -10.4°
Enters shadow 20:56:11 12° 160° (SSE) 3,341 5.6 -10.6°
